CW8633 Weather Reports


Display with metric or nautical units.
time (UTC)temp
F
wind
direction
speed
MPH
gust
MPH
rain 1hr
in
rain 24hr
in
rain mn
in
humidity
%
barometer
mb
20260831042621 64 360 3.0 4.0 0.00 0.01 0.01 41 1016.2
20260831041630 64 67 2.0 4.0 0.00 0.01 0.01 37 1016.2
20260831040613 65 62 1.0 4.0 0.00 0.01 0.01 36 1016.2
20260831035617 65 67 2.0 6.0 0.00 0.01 0.01 35 1016.1
20260831034627 66 65 3.0 5.0 0.00 0.01 0.01 34 1016.0
20260831033617 66 66 4.0 6.0 0.00 0.01 0.01 34 1015.9
20260831032628 66 71 3.0 6.0 0.00 0.01 0.01 34 1015.8
20260831031620 66 70 3.0 5.0 0.00 0.01 0.01 34 1015.7
20260831030630 67 67 4.0 8.0 0.00 0.01 0.01 32 1015.5
20260831025630 68 82 4.0 6.0 0.00 0.01 0.01 30 1015.4
20260831024623 69 70 4.0 8.0 0.00 0.01 0.01 30 1015.3
20260831023613 70 67 4.0 5.0 0.00 0.01 0.01 28 1015.2
20260831022624 71 57 2.0 6.0 0.00 0.01 0.01 26 1015.1
20260831021631 71 15 3.0 5.0 0.00 0.01 0.01 27 1015.1
20260831020626 72 29 2.0 6.0 0.00 0.01 0.01 27 1015.0
20260831015626 73 13 3.0 10.0 0.00 0.01 0.01 28 1014.9
20260831014637 74 11 3.0 8.0 0.00 0.01 0.01 27 1014.8
20260831013626 76 15 4.0 10.0 0.00 0.01 0.01 27 1014.9
20260831012622 77 29 3.0 6.0 0.00 0.01 0.01 28 1014.8
20260831011629 78 14 3.0 5.0 0.00 0.01 0.01 29 1014.8
20260831010620 78 15 4.0 8.0 0.00 0.01 0.01 29 1014.8
20260831005621 79 340 4.0 9.0 0.00 0.01 0.01 29 1014.9
20260831004615 79 360 4.0 12.0 0.00 0.01 0.01 28 1014.9
20260831003625 79 350 4.0 6.0 0.00 0.01 0.01 32 1014.8
20260831002616 79 350 3.0 5.0 0.00 0.01 0.01 37 1014.9
20260831001647 78 346 2.0 4.0 0.00 0.01 0.01 37 1015.0
20260831000617 78 342 2.0 5.0 0.00 0.01 0.01 40 1015.1
20260830235623 78 52 2.0 5.0 0.00 0.01 0.01 39 1015.1
20260830234613 77 355 1.0 3.0 0.00 0.01 0.01 41 1015.0
20260830233624 77 351 1.0 4.0 0.00 0.01 0.01 44 1015.0
20260830232635 77 346 3.0 4.0 0.00 0.01 0.01 42 1015.0
20260830231628 77 342 2.0 4.0 0.00 0.01 0.01 39 1015.1
20260830230618 78 355 3.0 6.0 0.00 0.01 0.01 40 1015.0
20260830225619 78 330 4.0 8.0 0.00 0.01 0.01 40 1015.1
20260830224615 78 244 1.0 6.0 0.00 0.01 0.01 39 1015.1
20260830223645 78 162 1.0 2.0 0.00 0.01 0.01 39 1015.1
20260830222615 78 161 1.0 9.0 0.00 0.01 0.01 37 1015.1
20260830221646 78 211 1.0 8.0 0.00 0.01 0.01 38 1015.3
20260830220615 77 204 5.0 9.0 0.00 0.01 0.01 41 1015.4
20260830215621 77 168 6.0 12.0 0.00 0.01 0.01 42 1015.4
20260830214632 77 198 5.0 10.0 0.00 0.01 0.01 42 1015.6
20260830213623 76 184 9.0 15.0 0.00 0.01 0.01 45 1015.7
20260830212634 76 217 2.0 7.0 0.00 0.01 0.01 48 1015.8
20260830211626 76 222 5.0 7.0 0.00 0.01 0.01 49 1015.9
20260830210638 75 209 3.0 6.0 0.00 0.01 0.01 49 1016.0
20260830205619 75 262 3.0 7.0 0.00 0.01 0.01 49 1016.0
20260830204630 75 272 2.0 6.0 0.00 0.01 0.01 48 1016.0
20260830203624 76 275 4.0 8.0 0.00 0.01 0.01 48 1015.9
20260830202615 76 295 2.0 5.0 0.00 0.01 0.01 47 1016.0
20260830201625 76 263 4.0 7.0 0.00 0.01 0.01 47 1016.1
20260830200637 75 311 4.0 5.0 0.00 0.01 0.01 52 1016.1
20260830195639 75 161 2.0 5.0 0.00 0.01 0.01 51 1016.0
20260830194613 74 13 2.0 5.0 0.00 0.01 0.01 56 1016.1
20260830193625 74 329 2.0 5.0 0.00 0.01 0.01 56 1016.2
20260830192616 74 329 3.0 6.0 0.00 0.01 0.01 55 1016.2
20260830191631 75 329 4.0 9.0 0.00 0.01 0.01 53 1016.4
20260830190623 75 296 2.0 9.0 0.00 0.01 0.01 54 1016.3
20260830185623 74 250 5.0 13.0 0.00 0.01 0.01 55 1016.4
20260830184612 74 240 8.0 13.0 0.00 0.01 0.01 54 1016.4
20260830183627 73 333 8.0 15.0 0.00 0.01 0.01 60 1016.4
20260830182619 72 190 4.0 12.0 0.00 0.01 0.01 59 1016.4
20260830181650 71 227 3.0 7.0 0.00 0.01 0.01 60 1016.5
20260830180625 72 252 2.0 7.0 0.00 0.01 0.01 60 1016.5
20260830175626 72 115 3.0 8.0 0.00 0.01 0.01 61 1016.7
20260830174619 72 42 1.0 3.0 0.00 0.01 0.01 63 1016.7
20260830173628 72 307 2.0 6.0 0.00 0.01 0.01 61 1016.8
20260830172616 71 284 3.0 5.0 0.00 0.01 0.01 65 1016.7
20260830171648 71 319 2.0 5.0 0.00 0.01 0.01 64 1016.8
20260830170616 70 317 2.0 5.0 0.00 0.01 0.01 66 1016.8
20260830165621 69 250 1.0 9.0 0.00 0.01 0.01 66 1016.7
20260830164632 69 355 2.0 4.0 0.00 0.01 0.01 68 1016.7
20260830163622 67 10 1.0 5.0 0.00 0.01 0.01 72 1016.7
20260830162616 66 327 4.0 6.0 0.00 0.01 0.01 73 1016.6
20260830161626 66 315 3.0 4.0 0.00 0.01 0.01 74 1016.5
20260830160635 66 346 1.0 4.0 0.00 0.01 0.01 75 1016.5
20260830155615 66 338 2.0 6.0 0.00 0.01 0.01 75 1016.5
20260830154627 66 332 0.0 4.0 0.00 0.01 0.01 70 1016.5
20260830153622 66 194 1.0 4.0 0.00 0.01 0.01 70 1016.4
20260830152632 66 117 0.0 1.0 0.00 0.01 0.01 70 1016.4
20260830151640 66 116 2.0 3.0 0.00 0.01 0.01 70 1016.3
20260830150631 65 29 0.0 0.0 0.00 0.01 0.01 72 1016.1
20260830145615 64 29 0.0 0.0 0.00 0.01 0.01 73 1016.0
20260830144625 63 29 0.0 3.0 0.00 0.01 0.01 76 1015.8
20260830143617 62 28 2.0 3.0 0.00 0.01 0.01 83 1015.8
20260830142612 61 28 0.0 2.0 0.00 0.01 0.01 82 1015.9
20260830141621 60 28 0.0 3.0 0.00 0.01 0.01 83 1015.9
20260830140612 60 28 0.0 2.0 0.00 0.01 0.01 84 1015.8
20260830135612 59 27 2.0 3.0 0.00 0.01 0.01 84 1015.6
20260830134627 60 13 2.0 4.0 0.00 0.01 0.01 84 1015.6
20260830133617 59 77 0.0 4.0 0.00 0.01 0.01 84 1015.5
20260830132626 59 78 1.0 4.0 0.00 0.01 0.01 85 1015.3
20260830131617 59 80 1.0 4.0 0.00 0.01 0.01 86 1015.4
20260830130633 58 78 0.0 2.0 0.00 0.01 0.01 86 1015.7
20260830125631 58 78 0.0 3.0 0.00 0.01 0.01 87 1015.6
20260830124622 58 78 0.0 5.0 0.00 0.01 0.01 87 1015.3
20260830123612 58 81 3.0 5.0 0.00 0.01 0.01 87 1015.0
20260830122628 58 44 2.0 3.0 0.00 0.01 0.01 87 1014.9
20260830121620 58 44 1.0 4.0 0.00 0.01 0.01 86 1014.9
20260830120612 58 34 0.0 2.0 0.00 0.01 0.01 86 1015.2
20260830115652 58 34 1.0 3.0 0.00 0.01 0.01 86 1015.1
20260830114626 58 34 1.0 3.0 0.00 0.01 0.01 86 1015.0
20260830113616 58 34 1.0 3.0 0.00 0.01 0.01 85 1014.9
20260830112627 58 34 1.0 3.0 0.00 0.01 0.01 85 1014.9
20260830111618 58 33 0.0 3.0 0.00 0.01 0.01 85 1014.6
20260830110613 58 33 1.0 3.0 0.00 0.01 0.01 85 1014.4
20260830105613 59 33 2.0 3.0 0.00 0.01 0.01 85 1014.1
20260830104623 59 33 1.0 4.0 0.00 0.01 0.01 86 1014.1
20260830103613 59 75 0.0 0.0 0.00 0.01 0.01 86 1014.4
20260830102628 59 75 0.0 0.0 0.00 0.01 0.01 86 1014.4
20260830101618 59 75 0.0 0.0 0.00 0.01 0.01 87 1014.6
20260830100629 59 75 0.0 1.0 0.00 0.01 0.01 87 1014.7
20260830095614 58 75 2.0 4.0 0.00 0.01 0.01 88 1014.8
20260830094625 58 32 1.0 4.0 0.00 0.01 0.01 88 1014.9
20260830093636 58 76 2.0 4.0 0.00 0.01 0.01 89 1015.0
20260830092645 58 72 0.0 2.0 0.00 0.01 0.01 89 1015.1
20260830091615 57 72 0.0 0.0 0.00 0.01 0.01 89 1015.0
20260830090629 57 72 0.0 0.0 0.00 0.01 0.01 88 1015.0
20260830085650 57 72 0.0 3.0 0.00 0.01 0.01 88 1014.9
20260830084619 58 72 0.0 0.0 0.00 0.01 0.01 87 1014.8
20260830083629 58 72 1.0 2.0 0.00 0.01 0.01 87 1014.7
20260830082622 58 72 1.0 4.0 0.00 0.01 0.01 87 1014.4
20260830081634 58 72 2.0 5.0 0.00 0.01 0.01 86 1014.5
20260830080644 58 72 1.0 3.0 0.00 0.01 0.01 85 1014.5
20260830075623 59 72 1.0 4.0 0.00 0.01 0.01 84 1014.5
20260830074617 59 80 1.0 8.0 0.01 0.01 0.01 84 1014.7
20260830073649 59 92 4.0 7.0 0.01 0.01 0.01 83 1014.6
20260830072615 59 221 4.0 13.0 0.01 0.01 0.01 83 1015.1
20260830071630 60 279 8.0 13.0 0.01 0.01 0.01 83 1015.3
20260830070619 60 256 5.0 8.0 0.01 0.01 0.01 82 1015.1
20260830065622 60 127 4.0 8.0 0.01 0.02 0.01 77 1014.2
20260830064632 61 215 3.0 5.0 0.00 0.01 0.00 75 1014.8
20260830063622 61 210 3.0 8.0 0.00 0.01 0.00 74 1014.6
20260830062631 62 188 3.0 5.0 0.00 0.01 0.00 73 1014.6
20260830061626 62 251 3.0 4.0 0.00 0.01 0.00 70 1014.5
20260830060619 63 338 1.0 5.0 0.00 0.01 0.00 69 1014.7
20260830055620 64 74 2.0 4.0 0.00 0.04 0.01 67 1014.8
20260830054630 63 75 2.0 4.0 0.00 0.04 0.01 68 1014.8
20260830053625 63 61 2.0 9.0 0.00 0.04 0.01 69 1014.9
20260830052617 62 80 3.0 8.0 0.00 0.04 0.01 70 1015.3
20260830051648 61 5 1.0 13.0 0.00 0.04 0.01 72 1015.6
20260830050638 61 97 8.0 13.0 0.00 0.04 0.01 73 1015.4
20260830045618 61 355 3.0 9.0 0.00 0.06 0.01 72 1015.4
20260830044652 63 290 1.0 4.0 0.00 0.06 0.01 71 1014.6
20260830043622 63 69 2.0 4.0 0.00 0.06 0.01 70 1014.3